Fort Indiantown Gap, PA

6:08 AM EDT on May 28, 2017 (GMT -0400)
Muir Army Air Field

Weather History for KMUI - August, 2013

Change the Weather History Date:

Saturday, August 31, 2013

  Actual Average Record
Temperature  
Mean Temperature 74 °F -  
Max Temperature 84 °F 78 °F 93 °F (2010)
Min Temperature 65 °F 62 °F 52 °F (2011)
Cooling Degree Days 9    
Growing Degree Days 24 (Base 50)    
Moisture  
Dew Point 69 °F    
Average Humidity 98    
Maximum Humidity 100    
Minimum Humidity 72    
Precipitation  
Precipitation 0.01 in - - ()
Sea Level Pressure  
Sea Level Pressure 29.86 in    
Wind  
Wind Speed 1 mph (NNE)    
Max Wind Speed 6 mph    
Max Gust Speed -    
Visibility 3 miles    
Events Fog , Rain , Thunderstorm    
Averages and records for this station are not official NWS values.
T = Trace of Precipitation, MM = Missing Value Source: NWS Daily Summary

Daily Weather History Graph

Daily Weather History Graph

Search for Another Location

Airport or City:

Trip Planner

Search our weather history database for the weather conditions in past years. The results will help you decide how hot, cold, wet, or windy it might be!

Date:

Astronomy

Aug. 31, 2013 Rise Set
Actual Time 6:32 AM EDT 7:39 PM EDT
Civil Twilight 6:04 AM EDT 8:07 PM EDT
Nautical Twilight 5:31 AM EDT 8:40 PM EDT
Astronomical Twilight 4:56 AM EDT 9:15 PM EDT
Moon 1:59 AM EDT (8/31) 4:36 PM EDT (8/31)
Length of Visible Light 14h 02m
Length of Day
13h 06m
Waning Crescent, 21% of the Moon is Illuminated
Aug 31
Waning Crescent
Sep 5
New
Sep 12
First Quarter
Sep 19
Full
Sep 26
Last Quarter

Hourly Weather History & Observations

Time (EDT) Temp. Heat Index Dew Point Humidity Pressure Visibility Wind Dir Wind Speed Gust Speed Precip Events Conditions
12:04 AM 68.0 °F - 68.0 °F 100% 29.89 in 3.0 mi Calm Calm - N/A   Mostly Cloudy
12:58 AM 68.2 °F - 68.2 °F 100% 29.88 in 3.0 mi NNE 2.3 mph - N/A   Partly Cloudy
1:02 AM 68.0 °F - 68.0 °F 100% 29.88 in 2.5 mi Calm Calm - N/A   Scattered Clouds
1:14 AM 68.0 °F - 68.0 °F 100% 29.88 in 3.0 mi Calm Calm - N/A   Mostly Cloudy
1:18 AM 68.0 °F - 68.0 °F 100% 29.88 in 2.5 mi Calm Calm - N/A   Mostly Cloudy
1:22 AM 68.0 °F - 68.0 °F 100% 29.88 in 1.2 mi Calm Calm - N/A   Mostly Cloudy
1:24 AM 68.0 °F - 68.0 °F 100% 29.88 in 1.0 mi Calm Calm - N/A   Mostly Cloudy
1:30 AM 68.0 °F - 68.0 °F 100% 29.88 in 1.2 mi Calm Calm - N/A   Mostly Cloudy
1:32 AM 68.0 °F - 68.0 °F 100% 29.87 in 1.5 mi Calm Calm - N/A   Mostly Cloudy
1:34 AM 68.0 °F - 68.0 °F 100% 29.87 in 1.5 mi Calm Calm - N/A   Mostly Cloudy
1:40 AM 68.0 °F - 68.0 °F 100% 29.87 in 1.2 mi Calm Calm - N/A   Mostly Cloudy
1:46 AM 68.0 °F - 68.0 °F 100% 29.87 in 1.5 mi Calm Calm - N/A   Scattered Clouds
1:48 AM 68.0 °F - 68.0 °F 100% 29.87 in 1.2 mi Calm Calm - N/A   Scattered Clouds
1:52 AM 68.0 °F - 68.0 °F 100% 29.87 in 1.5 mi Calm Calm - N/A   Scattered Clouds
1:54 AM 68.0 °F - 68.0 °F 100% 29.87 in 1.8 mi Calm Calm - N/A   Scattered Clouds
1:56 AM 68.0 °F - 68.0 °F 100% 29.87 in 2.0 mi Calm Calm - N/A   Scattered Clouds
1:58 AM 67.5 °F - 67.5 °F 100% 29.87 in 2.0 mi Calm Calm - N/A   Scattered Clouds
2:02 AM 68.0 °F - 68.0 °F 100% 29.87 in 3.0 mi Calm Calm - N/A   Mostly Cloudy
2:34 AM 68.0 °F - 68.0 °F 100% 29.87 in 2.5 mi Calm Calm - N/A   Mostly Cloudy
2:54 AM 68.0 °F - 68.0 °F 100% 29.87 in 3.0 mi Calm Calm - N/A   Mostly Cloudy
2:58 AM 67.5 °F - 67.5 °F 100% 29.87 in 3.0 mi Calm Calm - N/A   Mostly Cloudy
3:30 AM 68.0 °F - 68.0 °F 100% 29.87 in 2.5 mi Calm Calm - N/A   Partly Cloudy
3:34 AM 68.0 °F - 68.0 °F 100% 29.86 in 3.0 mi NE 2.3 mph - N/A   Clear
3:58 AM 68.0 °F - 68.0 °F 100% 29.87 in 4.0 mi NNE 1.2 mph - N/A   Clear
4:16 AM 68.0 °F - 68.0 °F 100% 29.86 in 2.5 mi Calm Calm - N/A   Partly Cloudy
4:20 AM 68.0 °F - 68.0 °F 100% 29.86 in 1.8 mi Calm Calm - N/A   Partly Cloudy
4:22 AM 68.0 °F - 68.0 °F 100% 29.86 in 1.5 mi Calm Calm - N/A   Partly Cloudy
4:30 AM 68.0 °F - 68.0 °F 100% 29.86 in 2.0 mi Calm Calm - N/A   Partly Cloudy
4:44 AM 68.0 °F - 68.0 °F 100% 29.86 in 1.5 mi Calm Calm - N/A   Partly Cloudy
4:46 AM 66.2 °F - 66.2 °F 100% 29.86 in 1.2 mi Calm Calm - N/A   Partly Cloudy
4:48 AM 66.2 °F - 66.2 °F 100% 29.86 in 1.0 mi Calm Calm - N/A   Partly Cloudy
4:52 AM 66.2 °F - 66.2 °F 100% 29.86 in 0.8 mi Calm Calm - N/A   Partly Cloudy
4:56 AM 66.2 °F - 66.2 °F 100% 29.86 in 1.0 mi Calm Calm - N/A   Partly Cloudy
4:58 AM 66.7 °F - 66.7 °F 100% 29.86 in 1.0 mi Calm Calm - N/A   Partly Cloudy
5:00 AM 66.2 °F - 66.2 °F 100% 29.86 in 1.5 mi Calm Calm - N/A   Partly Cloudy
5:02 AM 66.2 °F - 66.2 °F 100% 29.86 in 1.8 mi NNE 1.2 mph - N/A   Partly Cloudy
5:06 AM 66.2 °F - 66.2 °F 100% 29.86 in 1.5 mi Calm Calm - N/A   Clear
5:08 AM 66.2 °F - 66.2 °F 100% 29.86 in 1.2 mi Calm Calm - N/A   Clear
5:10 AM 66.2 °F - 66.2 °F 100% 29.86 in 1.0 mi ENE 2.3 mph - N/A   Clear
5:14 AM 66.2 °F - 66.2 °F 100% 29.86 in 0.8 mi East 2.3 mph - N/A   Clear
5:16 AM 66.2 °F - 66.2 °F 100% 29.86 in 1.0 mi NE 1.2 mph - N/A   Clear
5:22 AM 66.2 °F - 66.2 °F 100% 29.87 in 1.2 mi Calm Calm - N/A   Clear
5:24 AM 66.2 °F - 66.2 °F 100% 29.87 in 1.5 mi Calm Calm - N/A   Clear
5:28 AM 66.2 °F - 66.2 °F 100% 29.87 in 1.5 mi Calm Calm - N/A   Clear
5:30 AM 66.2 °F - 66.2 °F 100% 29.87 in 1.8 mi Variable 1.2 mph - N/A   Clear
5:36 AM 66.2 °F - 66.2 °F 100% 29.87 in 1.2 mi NNE 2.3 mph - N/A   Clear
5:38 AM 66.2 °F - 66.2 °F 100% 29.87 in 0.8 mi NNE 2.3 mph - N/A   Clear
5:42 AM 66.2 °F - 66.2 °F 100% 29.87 in 0.5 mi NE 2.3 mph - N/A Fog Fog
5:50 AM 66.2 °F - 66.2 °F 100% 29.87 in 0.5 mi NE 2.3 mph - N/A Fog Fog
5:58 AM 65.3 °F - 65.3 °F 100% 29.87 in 0.5 mi NE 2.3 mph - N/A Fog Fog
6:08 AM 66.2 °F - 66.2 °F 100% 29.87 in 0.8 mi NNE 2.3 mph - N/A   Mostly Cloudy
6:12 AM 66.2 °F - 66.2 °F 100% 29.88 in 1.0 mi NNE 1.2 mph - N/A   Mostly Cloudy
6:18 AM 66.2 °F - 66.2 °F 100% 29.87 in 0.8 mi NNE 2.3 mph - N/A   Mostly Cloudy
6:28 AM 66.2 °F - 66.2 °F 100% 29.87 in 1.0 mi Calm Calm - N/A   Mist
6:30 AM 66.2 °F - 66.2 °F 100% 29.87 in 1.2 mi Calm Calm - N/A   Scattered Clouds
6:32 AM 66.2 °F - 66.2 °F 100% 29.87 in 1.5 mi Calm Calm - N/A   Scattered Clouds
6:38 AM 66.2 °F - 66.2 °F 100% 29.87 in 1.8 mi Calm Calm - N/A   Partly Cloudy
6:40 AM 66.2 °F - 66.2 °F 100% 29.87 in 1.5 mi Calm Calm - N/A   Partly Cloudy
6:42 AM 66.2 °F - 66.2 °F 100% 29.87 in 1.2 mi Calm Calm - N/A   Partly Cloudy
6:46 AM 66.2 °F - 66.2 °F 100% 29.87 in 1.0 mi Calm Calm - N/A   Clear
6:52 AM 66.2 °F - 66.2 °F 100% 29.87 in 1.2 mi Calm Calm - N/A   Clear
6:54 AM 66.2 °F - 66.2 °F 100% 29.87 in 1.5 mi Calm Calm - N/A   Clear
6:56 AM 66.2 °F - 66.2 °F 100% 29.87 in 1.8 mi Calm Calm - N/A   Clear
6:58 AM 66.2 °F - 66.2 °F 100% 29.87 in 1.5 mi Calm Calm - N/A   Clear
7:00 AM 66.2 °F - 66.2 °F 100% 29.87 in 1.0 mi Calm Calm - N/A   Clear
7:04 AM 66.2 °F - 66.2 °F 100% 29.87 in 0.8 mi Calm Calm - N/A   Clear
7:10 AM 66.2 °F - 66.2 °F 100% 29.87 in 1.0 mi Calm Calm - N/A   Clear
7:12 AM 66.2 °F - 66.2 °F 100% 29.87 in 1.2 mi Calm Calm - N/A   Clear
7:14 AM 66.2 °F - 66.2 °F 100% 29.88 in 1.5 mi Calm Calm - N/A   Clear
7:16 AM 66.2 °F - 66.2 °F 100% 29.87 in 1.8 mi Calm Calm - N/A   Clear
7:20 AM 66.2 °F - 66.2 °F 100% 29.87 in 1.5 mi Calm Calm - N/A   Clear
7:22 AM 66.2 °F - 66.2 °F 100% 29.87 in 1.2 mi Calm Calm - N/A   Clear
7:24 AM 66.2 °F - 66.2 °F 100% 29.87 in 1.0 mi Calm Calm - N/A   Clear
7:26 AM 66.2 °F - 66.2 °F 100% 29.87 in 0.8 mi Calm Calm - N/A   Clear
7:32 AM 66.2 °F - 66.2 °F 100% 29.87 in 1.0 mi East 1.2 mph - N/A   Clear
7:34 AM 66.2 °F - 66.2 °F 100% 29.87 in 1.2 mi Calm Calm - N/A   Clear
7:36 AM 68.0 °F - 68.0 °F 100% 29.87 in 1.5 mi East 1.2 mph - N/A   Clear
7:38 AM 68.0 °F - 68.0 °F 100% 29.87 in 2.0 mi Calm Calm - N/A   Clear
7:58 AM 68.2 °F - 68.2 °F 100% 29.87 in 2.0 mi Calm Calm - N/A   Clear
8:18 AM 69.8 °F - 69.8 °F 100% 29.88 in 2.5 mi Calm Calm - N/A   Mostly Cloudy
8:24 AM 69.8 °F - 69.8 °F 100% 29.88 in 2.5 mi Calm Calm - N/A   Scattered Clouds
8:38 AM 71.6 °F - 71.6 °F 100% 29.87 in 3.0 mi NE 1.2 mph - N/A   Scattered Clouds
8:45 AM 71.6 °F - 71.6 °F 100% 29.87 in 3.0 mi Calm Calm - N/A   Partly Cloudy
8:58 AM 71.8 °F - 71.4 °F 99% 29.87 in 4.0 mi SW 2.3 mph - N/A   Clear
9:58 AM 75.4 °F - 71.1 °F 86% 29.88 in 5.0 mi Variable 3.5 mph - N/A   Haze
10:58 AM 77.9 °F - 70.9 °F 79% 29.88 in 6.0 mi SSW 5.8 mph - N/A   Haze
11:58 AM 79.5 °F - 70.7 °F 74% 29.86 in 6.0 mi Variable 3.5 mph - N/A   Haze
12:58 PM 81.0 °F 85.1 °F 71.6 °F 73% 29.85 in 6.0 mi Variable 1.2 mph - N/A   Haze
1:58 PM 81.7 °F 86.5 °F 72.1 °F 73% 29.85 in 6.0 mi Calm Calm - N/A   Haze
2:58 PM 82.2 °F 88.0 °F 73.4 °F 75% 29.83 in 6.0 mi ENE 2.3 mph - N/A   Haze
3:58 PM 83.8 °F 90.8 °F 73.9 °F 72% 29.81 in 10.0 mi Variable 2.3 mph - N/A   Partly Cloudy
4:39 PM 82.4 °F 89.5 °F 75.2 °F 79% 29.81 in 10.0 mi North 4.6 mph - N/A Rain Light Rain
4:54 PM 80.6 °F 87.1 °F 77.0 °F 89% 29.80 in 10.0 mi NNW 3.5 mph - N/A   Mostly Cloudy
4:58 PM 80.8 °F 87.6 °F 77.2 °F 89% 29.81 in 10.0 mi Calm Calm - 0.00 in   Mostly Cloudy
5:58 PM 79.7 °F - 78.4 °F 96% 29.80 in 10.0 mi Calm Calm - N/A Thunderstorm Clear
6:11 PM 78.8 °F - 78.8 °F 100% 29.81 in 9.0 mi North 3.5 mph - N/A Rain Light Rain
6:21 PM 78.8 °F - 77.0 °F 94% 29.80 in 10.0 mi North 2.3 mph - N/A   Clear
6:58 PM 78.3 °F - 76.8 °F 95% 29.80 in 10.0 mi Calm Calm - 0.00 in   Clear
7:34 PM 77.0 °F - 77.0 °F 100% 29.82 in 9.0 mi East 1.2 mph - N/A   Light Drizzle
7:58 PM 76.3 °F - 75.9 °F 99% 29.83 in 7.0 mi North 2.3 mph - 0.00 in   Light Drizzle
8:18 PM 75.2 °F - 75.2 °F 100% 29.83 in 8.0 mi Calm Calm - N/A   Scattered Clouds
8:20 PM 75.2 °F - 75.2 °F 100% 29.84 in 8.0 mi Calm Calm - N/A Rain , Thunderstorm Light Rain
8:52 PM 75.2 °F - 75.2 °F 100% 29.84 in 8.0 mi NNE 2.3 mph - N/A   Partly Cloudy
8:58 PM 75.4 °F - 75.0 °F 99% 29.84 in 7.0 mi North 2.3 mph - 0.00 in   Partly Cloudy
9:58 PM 73.6 °F - 73.6 °F 100% 29.86 in 6.0 mi North 2.3 mph - N/A   Overcast
10:41 PM 73.4 °F - 73.4 °F 100% 29.85 in 7.0 mi Calm Calm - N/A   Light Drizzle
10:56 PM 73.4 °F - 73.4 °F 100% 29.85 in 3.0 mi North 1.2 mph - N/A   Scattered Clouds
10:58 PM 73.4 °F - 73.4 °F 100% 29.85 in 3.0 mi NNW 1.2 mph - 0.00 in   Scattered Clouds
10:59 PM 73.4 °F - 73.4 °F 100% 29.85 in 3.0 mi NNW 1.2 mph - N/A Rain Light Rain
11:23 PM 73.4 °F - 73.4 °F 100% 29.84 in 3.0 mi Calm Calm - N/A   Scattered Clouds
11:58 PM 73.0 °F - 73.0 °F 100% 29.83 in 5.0 mi Calm Calm - 0.01 in   Scattered Clouds